This demonstration page uses our WeatherBlox Daily Observations layout. Learn more.

36.17497, -115.13722

Hourly Observations for April 25, 2018

Temp ( °F °C ) Dew Point ( °F °C ) Humidity (%) Winds ( mph kmh ) Pressure ( in mb ) Visibility ( mi km ) Precip ( " mm )
12:53 am 00:53 Clear 73 22.8 26 -3.3 17 17 WNW 5 7 29.94 1014 10 16.09344 0 0
1:53 am 01:53 Clear 72 22.2 27 -2.8 19 19 SW 6 9 29.94 1014 10 16.09344 0 0
2:53 am 02:53 Clear 72 22.2 26 -3.3 18 18 SW 7 11 29.94 1014 10 16.09344 0 0
3:53 am 03:53 Clear 70 21.1 26 -3.3 19 19 SSW 8 13 29.97 1015 10 16.09344 0 0
4:53 am 04:53 Clear 69 20.6 27 -2.8 21 21 W 6 9 29.97 1015 10 16.09344 0 0
5:53 am 05:53 Clear 66 18.9 28 -2.2 24 24 NW 5 7 30 1016 10 16.09344 0 0
6:53 am 06:53 Sunny 67 19.4 28 -2.2 23 23 NW 5 7 30.03 1017 10 16.09344 0 0
7:53 am 07:53 Sunny 73 22.8 24 -4.4 16 16 SW 5 7 30.03 1017 10 16.09344 0 0
8:53 am 08:53 Sunny 75 23.9 23 -5 14 14 S 3 6 30.03 1017 10 16.09344 0 0
9:53 am 09:53 Sunny 79 26.1 21 -6.1 11 11 N 3 6 30.03 1017 10 16.09344 0 0
10:53 am 10:53 Sunny 83 28.3 18 -7.8 9 9 undefined N/A 30.03 1017 10 16.09344 0 0
11:53 am 11:53 Sunny 84 28.9 18 -7.8 8 8 SE 7 11 30.03 1017 10 16.09344 0 0
12:53 pm 12:53 Sunny 86 30 18 -7.8 8 8 E 8 13 30 1016 10 16.09344 0 0
1:53 pm 13:53 Sunny 89 31.7 18 -7.8 7 7 ENE 7 11 29.97 1015 10 16.09344 0 0
2:53 pm 14:53 Sunny 90 32.2 17 -8.3 7 7 E 5 7 29.94 1014 10 16.09344 0 0
3:53 pm 15:53 Sunny 90 32.2 16 -8.9 6 6 Calm 29.91 1013 10 16.09344 0 0
4:53 pm 16:53 Sunny 90 32.2 16 -8.9 6 6 ESE 7 11 29.88 1012 10 16.09344 0 0
5:53 pm 17:53 Sunny 90 32.2 16 -8.9 6 6 S 5 7 29.88 1012 10 16.09344 0 0
6:53 pm 18:53 Sunny 89 31.7 16 -8.9 7 7 ENE 5 7 29.85 1011 10 16.09344 0 0
7:53 pm 19:53 Clear 87 30.6 17 -8.3 7 7 E 6 9 29.88 1012 10 16.09344 0 0
8:53 pm 20:53 Clear 85 29.4 20 -6.7 9 9 Calm 29.88 1012 10 16.09344 0 0
9:53 pm 21:53 Clear 80 26.7 29 -1.7 15 15 WNW 6 9 29.88 1012 10 16.09344 0 0
10:53 pm 22:53 Clear 76 24.4 28 -2.2 17 17 N 6 9 29.88 1012 10 16.09344 0 0
11:53 pm 23:53 Clear 75 23.9 24 -4.4 15 15 NNW 6 9 29.88 1012 10 16.09344 0 0

Powered by AerisWeather